This is the latest recevied weather packets stored in our database for station/object S54L-12. If no packets are shown the sender has not sent any weather packets the latest 10 day(s).
| Time | Temp. | Humidity | Pressure | Rain* | Wind** | Luminosity | Snow |
|---|---|---|---|---|---|---|---|
| 1777153378 | 11.11° C | 47% | 921 hPa | - | - | - | - |
| 1777152477 | 11.11° C | 47% | 921 hPa | - | - | - | - |
| 1777151579 | 11.11° C | 47% | 921.1 hPa | - | - | - | - |
| 1777150679 | 11.11° C | 47% | 921.1 hPa | - | - | - | - |
| 1777149779 | 11.67° C | 45% | 921.1 hPa | - | - | - | - |
| 1777148879 | 11.67° C | 44% | 921.1 hPa | - | - | - | - |
| 1777147979 | 11.67° C | 44% | 921.1 hPa | - | - | - | - |
| 1777147079 | 11.67° C | 44% | 921.1 hPa | - | - | - | - |
| 1777146178 | 12.22° C | 44% | 920.9 hPa | - | - | - | - |
| 1777145279 | 12.22° C | 43% | 921 hPa | - | - | - | - |
| 1777144378 | 12.22° C | 44% | 920.9 hPa | - | - | - | - |
| 1777143478 | 12.22° C | 44% | 920.8 hPa | - | - | - | - |
| 1777142578 | 12.78° C | 43% | 920.5 hPa | - | - | - | - |
| 1777141678 | 13.33° C | 43% | 920.3 hPa | - | - | - | - |
| 1777140778 | 13.33° C | 44% | 920 hPa | - | - | - | - |
| 1777139877 | 13.89° C | 44% | 920 hPa | - | - | - | - |
| 1777138977 | 13.89° C | 43% | 919.9 hPa | - | - | - | - |
| 1777138077 | 14.44° C | 43% | 919.8 hPa | - | - | - | - |
| 1777137177 | 15.56° C | 42% | 919.7 hPa | - | - | - | - |
| 1777136277 | 16.11° C | 40% | 919.7 hPa | - | - | - | - |
| 1777135377 | 16.67° C | 39% | 919.8 hPa | - | - | - | - |
| 1777134477 | 17.78° C | 37% | 919.7 hPa | - | - | - | - |
| 1777133577 | 18.89° C | 36% | 919.7 hPa | - | - | - | - |
| 1777132677 | 19.44° C | 36% | 919.8 hPa | - | - | - | - |
| 1777131777 | 19.44° C | 35% | 919.8 hPa | - | - | - | - |
* Rain since midnight (hover to see other rain measurements)
** Current wind speed in m/s (hover to see current wind gust speed)